Back to catalog

STARLINK-36983

AliveCommunicationsVLEO
NORAD 68323·PAYLOAD·🇺🇸 United States

Launched Mar 22, 2026 from Cape Canaveral Space Force Station

Loading…

Next Passes (next 24 hours)

TLE

FreshSource: CelesTrak SupGP

Epoch: Sep 14, 2026, 15:43 UTC

1 68323C 26059C   26257.65534722  .00069943  00000+0  20669-2 0  2572
2 68323  53.1585 182.9804 0001308  96.9320 256.2537 15.34349691    10

Track STARLINK-36983 in real time with AllMySat

Download on the App Store